Dades meteomassalio
Diari Summary for Agost 29, 2017 Units:  Metric    English   Both
« Previous Day
Next Day »
Diari Semanal Mensual Anual Personalitzat
  Maxima: Minima: Mijana:
Temperatura: -17.8 °C -8.4 °C -6.3 °C
Rosada: -17.8 °C -11.4 °C -8.9 °C
Humitat: Humidity % 45 % 76 %
Velocitat del vent: 0 km/h 0 km/h 14.2 km/h
Racha vent: 0 km/h - -
Vent:- - South
Pressio: 0 hPa 34361.1 hPa -
Pluja: 33.02 mm    
Historical Graphs
 
 
Tabular Data for Agost 29, 2017
Time Temperature Dew Point Pressure Wind Wind Speed Wind Gust Humidity Rainfall Rate (Hourly) solar Conditions
-17.8 °C -17.8 °C 0 hPa Calm     Humidity % 0 mm SolarRadiationWatts/m^2 W/m2 Conditions
00:00 -6.1 °C -7.5 °C 34442.4 hPa WSW 38.8 km/h 38.8 km/h 85 % 0 mm 0.0 W/m2 CLR
00:05 -6.1 °C -7.6 °C 34442.4 hPa SSW 38.8 km/h 38.8 km/h 85 % 0 mm 0.0 W/m2 CLR
00:10 -6.2 °C -7.6 °C 34442.4 hPa SW 33.6 km/h 33.6 km/h 85 % 0 mm 0.0 W/m2 CLR
00:15 -6.2 °C -7.7 °C 34442.4 hPa SW 15 km/h 15 km/h 85 % 0 mm 0.0 W/m2 CLR
00:20 -6.2 °C -7.7 °C 34442.4 hPa SSE 10.3 km/h 10.3 km/h 85 % 0 mm 0.0 W/m2 CLR
00:25 -6.2 °C -7.7 °C 34442.4 hPa Calm     85 % 0 mm 0.0 W/m2 CLR
00:30 -6.3 °C -7.7 °C 34442.4 hPa SSW 23.3 km/h 23.3 km/h 85 % 0 mm 0.0 W/m2 CLR
00:35 -6.3 °C -7.8 °C 34452.6 hPa SSW 38.8 km/h 38.8 km/h 84 % 0 mm 0.0 W/m2 CLR
00:40 -6.3 °C -7.7 °C 34442.4 hPa SW 38.8 km/h 38.8 km/h 85 % 0 mm 0.0 W/m2 CLR
00:45 -6.3 °C -7.7 °C 34442.4 hPa SW 32.8 km/h 32.8 km/h 85 % 0 mm 0.0 W/m2 CLR
00:50 -6.3 °C -7.9 °C 34452.6 hPa South 17.9 km/h 17.9 km/h 84 % 0 mm 0.0 W/m2 CLR
00:55 -6.4 °C -7.9 °C 34442.4 hPa SW 11.9 km/h 11.9 km/h 84 % 0 mm 0.0 W/m2 CLR
01:00 -6.4 °C -7.9 °C 34452.6 hPa SSW 9 km/h   84 % 0 mm 0.0 W/m2 CLR
01:05 -6.4 °C -7.9 °C 34442.4 hPa Calm     84 % 0 mm 0.0 W/m2 CLR
01:10 -6.4 °C -8 °C 34442.4 hPa Calm     84 % 0 mm 0.0 W/m2 CLR
01:15 -6.5 °C -7.9 °C 34452.6 hPa Calm     85 % 0 mm 0.0 W/m2 CLR
01:20 -6.6 °C -8 °C 34452.6 hPa SSW 9 km/h 9 km/h 85 % 0 mm 0.0 W/m2 CLR
01:25 -6.6 °C -8 °C 34452.6 hPa South 9 km/h 9 km/h 85 % 0 mm 0.0 W/m2 CLR
01:30 -6.6 °C -8 °C 34452.6 hPa Calm     85 % 0 mm 0.0 W/m2 CLR
01:35 -6.6 °C -8.1 °C 34442.4 hPa South 9 km/h 9 km/h 85 % 0 mm 0.0 W/m2 CLR
01:40 -6.6 °C -8.1 °C 34442.4 hPa Calm     85 % 0 mm 0.0 W/m2 CLR
01:45 -6.7 °C -8.1 °C 34428.8 hPa Calm     85 % 0 mm 0.0 W/m2 CLR
01:50 -6.7 °C -8.2 °C 34442.4 hPa Calm     85 % 0 mm 0.0 W/m2 CLR
01:55 -6.7 °C -8.2 °C 34428.8 hPa Calm     85 % 0 mm 0.0 W/m2 CLR
02:00 -6.8 °C -8.2 °C 34428.8 hPa Calm     85 % 0 mm 0.0 W/m2 CLR
02:05 -6.8 °C -8.3 °C 34442.4 hPa Calm     85 % 0 mm 0.0 W/m2 CLR
02:10 -6.8 °C -8.2 °C 34442.4 hPa Calm     86 % 0 mm 0.0 W/m2 CLR
02:15 -6.9 °C -8.2 °C 34442.4 hPa Calm     86 % 0 mm 0.0 W/m2 CLR
02:20 -6.9 °C -8.2 °C 34442.4 hPa SSE 9 km/h 9 km/h 86 % 0 mm 0.0 W/m2 CLR
02:25 -7 °C -8.3 °C 34442.4 hPa SSE 9 km/h 9 km/h 86 % 0 mm 0.0 W/m2 CLR
02:30 -7 °C -8.3 °C 34442.4 hPa SSE 5.1 km/h 5.1 km/h 86 % 0 mm 0.0 W/m2 CLR
02:35 -7.1 °C -8.4 °C 34442.4 hPa South 2.6 km/h 2.6 km/h 86 % 0 mm 0.0 W/m2 CLR
02:40 -7.1 °C -8.3 °C 34442.4 hPa Calm     87 % 0 mm 0.0 W/m2 CLR
02:45 -7.1 °C -8.3 °C 34442.4 hPa SSE 9 km/h 9 km/h 87 % 0 mm 0.0 W/m2 CLR
02:50 -7.1 °C -8.4 °C 34442.4 hPa SSE 3.1 km/h 3.1 km/h 87 % 0 mm 0.0 W/m2 CLR
02:55 -7.1 °C -8.4 °C 34442.4 hPa SSE 3.1 km/h   86 % 0 mm 0.0 W/m2 CLR
03:00 -7.2 °C -8.5 °C 34428.8 hPa Calm     86 % 0 mm 0.0 W/m2 CLR
03:05 -7.2 °C -8.5 °C 34442.4 hPa Calm     86 % 0 mm 0.0 W/m2 CLR
03:10 -7.2 °C -8.5 °C 34428.8 hPa South 7.7 km/h 7.7 km/h 86 % 0 mm 0.0 W/m2 CLR
03:15 -7.2 °C -8.6 °C 34428.8 hPa South 9 km/h 9 km/h 86 % 0 mm 0.0 W/m2 CLR
03:20 -7.2 °C -8.7 °C 34428.8 hPa South 6 km/h   85 % 0 mm 0.0 W/m2 CLR
03:25 -7.2 °C -8.7 °C 34428.8 hPa Calm     85 % 0 mm 0.0 W/m2 CLR
03:30 -7.2 °C -8.7 °C 34428.8 hPa South 9 km/h   85 % 0 mm 0.0 W/m2 CLR
03:35 -7.2 °C -8.7 °C 34428.8 hPa Calm     85 % 0 mm 0.0 W/m2 CLR
03:40 -7.3 °C -8.7 °C 34428.8 hPa Calm     85 % 0 mm 0.0 W/m2 CLR
03:45 -7.3 °C -8.7 °C 34428.8 hPa Calm     85 % 0 mm 0.0 W/m2 CLR
03:50 -7.4 °C -8.7 °C 34428.8 hPa Calm     86 % 0 mm 0.0 W/m2 CLR
03:55 -7.4 °C -8.7 °C 34418.7 hPa Calm     86 % 0 mm 0.0 W/m2 CLR
04:00 -7.4 °C -8.8 °C 34428.8 hPa Calm     86 % 0 mm 0.0 W/m2 CLR
04:05 -7.4 °C -8.8 °C 34418.7 hPa Calm     86 % 0 mm 0.0 W/m2 CLR
04:10 -7.5 °C -8.8 °C 34418.7 hPa Calm     86 % 0 mm 0.0 W/m2 CLR
04:15 -7.5 °C -8.7 °C 34418.7 hPa Calm     87 % 0 mm 0.0 W/m2 CLR
04:20 -7.6 °C -8.8 °C 34418.7 hPa Calm     87 % 0 mm 0.0 W/m2 CLR
04:25 -7.6 °C -8.8 °C 34405.1 hPa Calm     87 % 0 mm 0.0 W/m2 CLR
04:30 -7.7 °C -8.9 °C 34418.7 hPa Calm     87 % 0 mm 0.0 W/m2 CLR
04:35 -7.7 °C -8.8 °C 34405.1 hPa Calm     88 % 0 mm 0.0 W/m2 CLR
04:40 -7.8 °C -8.9 °C 34405.1 hPa Calm     88 % 0 mm 0.0 W/m2 CLR
04:45 -7.8 °C -8.9 °C 34395 hPa Calm     88 % 0 mm 0.0 W/m2 CLR
04:50 -7.8 °C -8.9 °C 34395 hPa Calm     88 % 0 mm 0.0 W/m2 CLR
04:55 -7.9 °C -8.9 °C 34405.1 hPa Calm     89 % 0 mm 0.0 W/m2 CLR
05:00 -7.9 °C -8.9 °C 34405.1 hPa Calm     89 % 0 mm 0.0 W/m2 CLR
05:05 -8 °C -9 °C 34395 hPa Calm     89 % 0 mm 0.0 W/m2 CLR
05:11 -8 °C -9.1 °C 34395 hPa Calm     89 % 0 mm 0.0 W/m2 CLR
05:16 -8 °C -9.1 °C 34405.1 hPa Calm     89 % 0 mm 0.0 W/m2 CLR
05:21 -8.1 °C -9.1 °C 34405.1 hPa Calm     89 % 0 mm 0.0 W/m2 CLR
05:22 -8.1 °C -9.1 °C 34405.1 hPa Calm     89 % 0 mm 0.0 W/m2 CLR
05:25 -8.1 °C -9.1 °C 34405.1 hPa Calm     89 % 0 mm 0.0 W/m2 CLR
05:26 -8.1 °C -9.1 °C 34405.1 hPa Calm     89 % 0 mm 0.0 W/m2 CLR
05:30 -8.1 °C -9.1 °C 34395 hPa Calm     89 % 0 mm 0.0 W/m2 CLR
05:33 -8.1 °C -9.1 °C 34395 hPa Calm     90 % 0 mm 0.0 W/m2 CLR
05:35 -8.1 °C -9.1 °C 34395 hPa Calm     90 % 0 mm 0.0 W/m2 CLR
05:40 -8.2 °C -9.2 °C 34395 hPa Calm     89 % 0 mm 0.0 W/m2 CLR
05:45 -8.2 °C -9.1 °C 34395 hPa Calm     90 % 0 mm 0.0 W/m2 CLR
05:50 -8.2 °C -9.1 °C 34395 hPa Calm     90 % 0 mm 0.0 W/m2 CLR
05:55 -8.2 °C -9.2 °C 34395 hPa Calm     90 % 0 mm 0.0 W/m2 CLR
06:00 -8.3 °C -9.2 °C 34395 hPa Calm     90 % 0 mm 0.0 W/m2 CLR
06:05 -8.3 °C -9.2 °C 34395 hPa Calm     90 % 0 mm 0.0 W/m2 CLR
06:10 -8.3 °C -9.2 °C 34405.1 hPa SSE 9 km/h 9 km/h 90 % 0 mm 0.0 W/m2 CLR
06:15 -8.4 °C -9.3 °C 34418.7 hPa SSE 29.8 km/h 29.8 km/h 90 % 0 mm 0.0 W/m2 CLR
06:20 -8.4 °C -9.2 °C 34418.7 hPa South 6 km/h 6 km/h 91 % 0 mm 0.0 W/m2 CLR
06:25 -8.3 °C -9.2 °C 34418.7 hPa SSW 10.3 km/h 10.3 km/h 91 % 0 mm 0.0 W/m2 CLR
06:30 -8.2 °C -9 °C 34418.7 hPa SSW 3.1 km/h 3.1 km/h 91 % 12.7 mm 0.0 W/m2 RA
06:35 -8.1 °C -9 °C 34395 hPa NW 12.9 km/h 12.9 km/h 90 % 20.32 mm 0.0 W/m2 RA
06:40 -8.1 °C -9 °C 34405.1 hPa Calm     90 % 20.32 mm 0.0 W/m2
06:45 -8.2 °C -9.1 °C 34405.1 hPa Calm     90 % 20.32 mm 0.0 W/m2 CLR
06:50 -8.2 °C -9 °C 34405.1 hPa Calm     91 % 20.32 mm 0.0 W/m2 CLR
06:55 -8.2 °C -9.1 °C 34405.1 hPa Calm     91 % 20.32 mm 0.0 W/m2 CLR
07:00 -8.2 °C -9.1 °C 34405.1 hPa Calm     91 % 20.32 mm 0.0 W/m2 CLR
07:05 -8.3 °C -9.1 °C 34405.1 hPa Calm     91 % 20.32 mm 0.0 W/m2 CLR
07:10 -8.3 °C -9.1 °C 34405.1 hPa Calm     91 % 20.32 mm 0.0 W/m2 CLR
07:15 -8.3 °C -9 °C 34418.7 hPa Calm     92 % 20.32 mm 0.0 W/m2 OVC
07:20 -8.2 °C -9 °C 34418.7 hPa Calm     92 % 20.32 mm 0.0 W/m2 OVC
07:25 -8.3 °C -9 °C 34428.8 hPa Calm     92 % 20.32 mm 7.0 W/m2 BKN
07:30 -8.3 °C -9 °C 34442.4 hPa South 3.1 km/h 3.1 km/h 92 % 7.62 mm 7.0 W/m2 BKN
07:35 -8.3 °C -9 °C 34442.4 hPa South 3.1 km/h   92 % 0 mm 14.0 W/m2 BKN
07:40 -8.2 °C -9 °C 34428.8 hPa Calm     92 % 0 mm 30.0 W/m2 BKN
07:45 -8.2 °C -8.9 °C 34418.7 hPa Calm     92 % 0 mm 35.0 W/m2 BKN
07:50 -8.2 °C -8.9 °C 34418.7 hPa Calm     92 % 0 mm 35.0 W/m2 BKN
07:55 -8.2 °C -8.9 °C 34418.7 hPa Calm     92 % 0 mm 42.0 W/m2 BKN
08:00 -8.1 °C -8.8 °C 34418.7 hPa Calm     92 % 0 mm 53.0 W/m2 SCT
08:05 -8.1 °C -8.8 °C 34418.7 hPa Calm     92 % 0 mm 74.0 W/m2 FEW
08:10 -8.1 °C -8.8 °C 34418.7 hPa Calm     92 % 0 mm 88.0 W/m2 CLR
08:11 -8.1 °C -8.8 °C 34428.8 hPa Calm     92 % 0 mm 90.0 W/m2 CLR
08:16 -7.9 °C -8.7 °C 34428.8 hPa Calm     92 % 0 mm 91.0 W/m2 CLR
08:21 -7.9 °C -8.7 °C 34428.8 hPa Calm     92 % 0 mm 54.0 W/m2 SCT
08:26 -7.9 °C -8.7 °C 34428.8 hPa Calm     92 % 0 mm 53.0 W/m2 SCT
08:31 -7.8 °C -8.6 °C 34418.7 hPa Calm     92 % 0 mm 47.0 W/m2 SCT
08:36 -7.8 °C -8.6 °C 34418.7 hPa Calm     92 % 0 mm 58.0 W/m2 SCT
08:41 -7.8 °C -8.7 °C 34418.7 hPa Calm     91 % 0 mm 67.0 W/m2 SCT
08:46 -7.9 °C -8.7 °C 34418.7 hPa Calm     91 % 0 mm 46.0 W/m2 SCT
08:51 -7.8 °C -8.7 °C 34418.7 hPa Calm     91 % 0 mm 40.0 W/m2 SCT
08:56 -7.8 °C -8.7 °C 34428.8 hPa Calm     91 % 0 mm 63.0 W/m2 BKN
09:01 -7.8 °C -8.7 °C 34418.7 hPa Calm     91 % 0 mm 107.0 W/m2 SCT
09:06 -7.7 °C -8.6 °C 34428.8 hPa Calm     91 % 0 mm 120.0 W/m2 CLR
09:16 -7.6 °C -8.4 °C 34428.8 hPa Calm     91 % 0 mm 151.0 W/m2 CLR
09:21 -7.6 °C -8.4 °C 34442.4 hPa Calm     91 % 0 mm 165.0 W/m2 CLR
09:26 -7.5 °C -8.3 °C 34428.8 hPa Calm     91 % 0 mm 181.0 W/m2 CLR
09:31 -7.4 °C -8.2 °C 34442.4 hPa Calm     91 % 0 mm 243.0 W/m2 CLR
09:36 -7.3 °C -8.2 °C 34442.4 hPa Calm     90 % 0 mm 424.0 W/m2 CLR
09:41 -7.1 °C -8.2 °C 34442.4 hPa Calm     89 % 0 mm 397.0 W/m2 CLR
09:46 -7 °C -8.1 °C 34452.6 hPa Calm     88 % 0 mm 380.0 W/m2 CLR
09:51 -6.9 °C -8.2 °C 34442.4 hPa Calm     86 % 0 mm 387.0 W/m2 CLR
09:56 -6.8 °C -8.2 °C 34442.4 hPa Calm     85 % 0 mm 403.0 W/m2 CLR
10:01 -6.6 °C -8 °C 34452.6 hPa Calm     85 % 0 mm 415.0 W/m2 CLR
10:06 -6.4 °C -7.9 °C 34442.4 hPa Calm     84 % 0 mm 432.0 W/m2 CLR
10:11 -6.3 °C -7.8 °C 34442.4 hPa Calm     84 % 0 mm 448.0 W/m2 CLR
10:16 -6.2 °C -7.9 °C 34442.4 hPa Calm     82 % 0 mm 455.0 W/m2 CLR
10:21 -6.1 °C -8 °C 34442.4 hPa NNE 7.7 km/h 7.7 km/h 81 % 0 mm 482.0 W/m2 CLR
10:26 -6.1 °C -8 °C 34442.4 hPa North 5.1 km/h 5.1 km/h 81 % 0 mm 508.0 W/m2 CLR
10:31 -6 °C -8 °C 34442.4 hPa NNW 9 km/h 9 km/h 80 % 0 mm 526.0 W/m2 CLR
10:36 -5.9 °C -7.8 °C 34442.4 hPa NNW 11.9 km/h 11.9 km/h 81 % 0 mm 540.0 W/m2 CLR
10:41 -5.8 °C -7.9 °C 34442.4 hPa North 9 km/h   79 % 0 mm 541.0 W/m2 CLR
10:46 -5.7 °C -7.7 °C 34442.4 hPa NNW 9 km/h 9 km/h 80 % 0 mm 591.0 W/m2 CLR
10:51 -5.7 °C -7.8 °C 34452.6 hPa Calm     79 % 0 mm 485.0 W/m2 CLR
10:56 -5.7 °C -7.9 °C 34452.6 hPa NNE 6 km/h 6 km/h 78 % 0 mm 661.0 W/m2 CLR
11:01 -5.6 °C -7.8 °C 34452.6 hPa Calm     78 % 0 mm 526.0 W/m2 CLR
11:06 -5.4 °C -7.6 °C 34452.6 hPa Calm     78 % 0 mm 584.0 W/m2 CLR
11:11 -5.3 °C -7.8 °C 34452.6 hPa NW 6 km/h   76 % 0 mm 399.0 W/m2 CLR
11:16 -5.3 °C -7.9 °C 34452.6 hPa Calm     75 % 0 mm 223.0 W/m2 CLR
11:21 -5.4 °C -7.9 °C 34452.6 hPa Calm     76 % 0 mm 315.0 W/m2 CLR
11:26 -5.4 °C -8 °C 34452.6 hPa Calm     75 % 0 mm 292.0 W/m2 CLR
11:31 -5.4 °C -8 °C 34442.4 hPa Calm     75 % 0 mm 281.0 W/m2 CLR
11:36 -5.4 °C -7.7 °C 34442.4 hPa NW 3.1 km/h 3.1 km/h 77 % 0 mm 234.0 W/m2 CLR
11:41 -5.4 °C -7.7 °C 34428.8 hPa Calm     77 % 0 mm 220.0 W/m2 CLR
11:46 -5.4 °C -7.8 °C 34442.4 hPa NW 9 km/h 9 km/h 77 % 0 mm 220.0 W/m2 CLR
11:52 -5.4 °C -7.8 °C 34442.4 hPa North 11.9 km/h 11.9 km/h 77 % 0 mm 232.0 W/m2 CLR
11:56 -5.5 °C -7.9 °C 34442.4 hPa NNW 9 km/h 9 km/h 77 % 0 mm 258.0 W/m2 CLR
12:02 -5.5 °C -7.9 °C 34442.4 hPa Calm     77 % 0 mm 318.0 W/m2 CLR
12:07 -5.4 °C -7.8 °C 34442.4 hPa Calm     77 % 0 mm 329.0 W/m2 CLR
12:12 -5.4 °C -7.7 °C 34442.4 hPa Calm     77 % 0 mm 434.0 W/m2 CLR
12:17 -5.3 °C -7.8 °C 34452.6 hPa North 10.3 km/h 10.3 km/h 76 % 0 mm 396.0 W/m2 CLR
12:22 -5.3 °C -7.7 °C 34452.6 hPa Calm     76 % 0 mm 659.0 W/m2 CLR
12:27 -5.1 °C -7.7 °C 34442.4 hPa NNW 9 km/h 9 km/h 75 % 0 mm 744.0 W/m2 CLR
12:32 -4.9 °C -7.8 °C 34442.4 hPa Calm     73 % 0 mm 768.0 W/m2 CLR
12:37 -4.8 °C -7.7 °C 34442.4 hPa NW 5.1 km/h 5.5 km/h 72 % 0 mm 403.0 W/m2 CLR
12:42 -4.7 °C -7.7 °C 34428.8 hPa Calm     72 % 0 mm 487.0 W/m2 CLR
12:47 -4.6 °C -7.8 °C 34428.8 hPa Calm     70 % 0 mm 490.0 W/m2 CLR
12:52 -4.6 °C -7.9 °C 34428.8 hPa WNW 9 km/h 9 km/h 69 % 0 mm 526.0 W/m2 CLR
12:57 -4.6 °C -7.8 °C 34418.7 hPa West 9 km/h 9 km/h 70 % 0 mm 513.0 W/m2 CLR
13:02 -4.6 °C -7.8 °C 34418.7 hPa West 3.1 km/h 3.1 km/h 70 % 0 mm 445.0 W/m2 CLR
13:07 -4.6 °C -7.7 °C 34418.7 hPa North 9 km/h 9 km/h 70 % 0 mm 457.0 W/m2 CLR
13:12 -4.4 °C -7.7 °C 34405.1 hPa WNW 9 km/h 9 km/h 70 % 0 mm 348.0 W/m2 CLR
13:17 -4.5 °C -7.7 °C 34405.1 hPa Calm     70 % 0 mm 311.0 W/m2 CLR
13:22 -4.5 °C -7.7 °C 34405.1 hPa WNW 10.3 km/h 10.3 km/h 70 % 0 mm 297.0 W/m2 CLR
13:27 -4.5 °C -7.6 °C 34405.1 hPa NW 23.8 km/h 23.8 km/h 71 % 0 mm 262.0 W/m2 CLR
13:32 -4.5 °C -7.6 °C 34405.1 hPa NW 15 km/h 15 km/h 71 % 0 mm 195.0 W/m2 CLR
13:37 -4.5 °C -7.6 °C 34395 hPa West 9 km/h 9 km/h 71 % 0 mm 156.0 W/m2 CLR
13:42 -4.6 °C -7.6 °C 34405.1 hPa Calm     71 % 0 mm 153.0 W/m2 CLR
13:47 -4.6 °C -7.7 °C 34405.1 hPa Calm     70 % 0 mm 113.0 W/m2 CLR
13:52 -4.6 °C -7.6 °C 34405.1 hPa Calm     71 % 0 mm 79.0 W/m2 CLR
13:57 -4.6 °C -7.7 °C 34395 hPa NW 15.6 km/h 15.6 km/h 71 % 0 mm 60.0 W/m2 FEW
14:02 -4.6 °C -7.6 °C 34395 hPa NNW 10.3 km/h 10.3 km/h 72 % 0 mm 56.0 W/m2 SCT
14:07 -4.7 °C -7.7 °C 34418.7 hPa NNW 9 km/h 9 km/h 72 % 0 mm 54.0 W/m2 SCT
14:12 -4.7 °C -7.6 °C 34418.7 hPa NNW 9 km/h 9 km/h 73 % 0 mm 51.0 W/m2 SCT
14:17 -4.7 °C -7.6 °C 34418.7 hPa Calm     73 % 0 mm 53.0 W/m2 SCT
14:54 -4.5 °C -7.7 °C 34405.1 hPa Calm     70 % 0 mm 153.0 W/m2 CLR
14:59 -4.4 °C -7.6 °C 34405.1 hPa Calm     71 % 0 mm 171.0 W/m2 CLR
15:04 -4.4 °C -7.5 °C 34405.1 hPa Calm     71 % 0 mm 288.0 W/m2 CLR
15:09 -4.3 °C -7.6 °C 34405.1 hPa Calm     70 % 0 mm 294.0 W/m2 CLR
15:14 -4.2 °C -7.4 °C 34395 hPa Calm     70 % 0 mm 294.0 W/m2 CLR
15:19 -4.1 °C -7.4 °C 34384.8 hPa North 3.1 km/h   70 % 0 mm 253.0 W/m2 CLR
15:24 -4.1 °C -7.4 °C 34384.8 hPa Calm     69 % 0 mm 206.0 W/m2 CLR
15:29 -4 °C -7.5 °C 34384.8 hPa Calm     68 % 0 mm 195.0 W/m2 CLR
15:34 -3.9 °C -7.4 °C 34384.8 hPa NNE 3.1 km/h   68 % 0 mm 207.0 W/m2 CLR
15:39 -3.9 °C -7.6 °C 34384.8 hPa NE 9 km/h 9 km/h 67 % 0 mm 206.0 W/m2 CLR
15:44 -3.8 °C -7.6 °C 34395 hPa NE 3.1 km/h   66 % 0 mm 171.0 W/m2 CLR
15:49 -3.7 °C -7.7 °C 34395 hPa Calm     65 % 0 mm 121.0 W/m2 CLR
15:54 -3.7 °C -7.5 °C 34384.8 hPa Calm     66 % 0 mm 90.0 W/m2 CLR
15:57 -3.7 °C -7.6 °C 34384.8 hPa Calm     65 % 0 mm 83.0 W/m2 CLR
16:02 -3.7 °C -7.6 °C 34384.8 hPa North 11.9 km/h 11.9 km/h 65 % 0 mm 77.0 W/m2 FEW
16:07 -3.5 °C -7.6 °C 34384.8 hPa Calm     64 % 0 mm 84.0 W/m2 FEW
16:12 -3.4 °C -7.9 °C 34384.8 hPa ESE 35.7 km/h 35.7 km/h 61 % 0 mm 90.0 W/m2 FEW
16:17 -3.2 °C -8.5 °C 34371.3 hPa ESE 68.6 km/h 68.6 km/h 56 % 0 mm 83.0 W/m2 CLR
16:22 -3.2 °C -8.8 °C 34361.1 hPa East 44.1 km/h 44.1 km/h 54 % 0 mm 69.0 W/m2 FEW
16:23 -3.2 °C -9.1 °C 34361.1 hPa SE 47.6 km/h 47.6 km/h 52 % 0 mm 65.0 W/m2 FEW
16:28 -3.3 °C -9.3 °C 34371.3 hPa SE 59.5 km/h 59.5 km/h 51 % 0 mm 54.0 W/m2 FEW
16:33 -3.4 °C -9.2 °C 34395 hPa SE 53.6 km/h 53.6 km/h 53 % 0 mm 63.0 W/m2 SCT
16:38 -3.7 °C -9.1 °C 34395 hPa SSE 41.7 km/h 41.7 km/h 55 % 0 mm 70.0 W/m2 SCT
16:43 -3.8 °C -9.3 °C 34395 hPa SSE 41.7 km/h 41.7 km/h 54 % 0 mm 58.0 W/m2 FEW
16:48 -3.8 °C -9.5 °C 34395 hPa ESE 38.8 km/h 38.8 km/h 53 % 0 mm 63.0 W/m2 SCT
16:53 -3.7 °C -9.4 °C 34405.1 hPa SE 47.6 km/h 47.6 km/h 53 % 0 mm 81.0 W/m2 FEW
16:58 -3.7 °C -9.6 °C 34405.1 hPa SE 44.7 km/h 44.7 km/h 52 % 0 mm 104.0 W/m2 FEW
17:03 -3.8 °C -9.8 °C 34405.1 hPa SE 50.7 km/h 50.7 km/h 51 % 0 mm 95.0 W/m2 CLR
17:08 -3.8 °C -9.8 °C 34405.1 hPa SE 44.7 km/h 44.7 km/h 51 % 0 mm 70.0 W/m2 CLR
17:13 -3.8 °C -9.7 °C 34405.1 hPa ESE 38.8 km/h 38.8 km/h 52 % 0 mm 63.0 W/m2 FEW
17:18 -3.9 °C -9.6 °C 34405.1 hPa SE 50.7 km/h 50.7 km/h 53 % 0 mm 79.0 W/m2 FEW
17:23 -4 °C -9.7 °C 34395 hPa ESE 38.8 km/h 38.8 km/h 53 % 0 mm 109.0 W/m2 FEW
17:28 -4 °C -9.7 °C 34395 hPa East 50.7 km/h 50.7 km/h 53 % 0 mm 105.0 W/m2 CLR
17:33 -3.8 °C -9.7 °C 34395 hPa East 74.5 km/h 74.5 km/h 52 % 0 mm 90.0 W/m2 CLR
17:43 -3.7 °C -9.9 °C 34384.8 hPa SE 44.7 km/h 44.7 km/h 50 % 0 mm 74.0 W/m2 FEW
17:48 -3.7 °C -9.8 °C 34384.8 hPa ESE 26.9 km/h 26.9 km/h 51 % 0 mm 67.0 W/m2 FEW
17:53 -3.7 °C -10.1 °C 34384.8 hPa East 35.7 km/h 35.7 km/h 49 % 0 mm 42.0 W/m2 SCT
17:58 -3.8 °C -10.2 °C 34371.3 hPa East 59.5 km/h 59.5 km/h 49 % 0 mm 53.0 W/m2 SCT
18:03 -3.9 °C -10.1 °C 34371.3 hPa ESE 65.5 km/h 65.5 km/h 50 % 0 mm 90.0 W/m2 SCT
18:08 -4.1 °C -10.2 °C 34371.3 hPa ESE 59.5 km/h 59.5 km/h 50 % 0 mm 65.0 W/m2 FEW
18:13 -4 °C -10.6 °C 34371.3 hPa ESE 65.5 km/h 65.5 km/h 48 % 0 mm 40.0 W/m2 FEW
18:18 -3.9 °C -11.1 °C 34371.3 hPa ESE 74.5 km/h 74.5 km/h 45 % 0 mm 44.0 W/m2 SCT
18:57 -4.5 °C -10.9 °C 34395 hPa SSE 83.4 km/h 83.4 km/h 48 % 0 mm 30.0 W/m2 OVC
19:02 -4.8 °C -11.3 °C 34405.1 hPa SE 35.7 km/h 35.7 km/h 48 % 0 mm 16.0 W/m2 BKN
19:07 -4.8 °C -11.1 °C 34418.7 hPa SE 32.8 km/h 32.8 km/h 49 % 0 mm 14.0 W/m2 BKN
19:08 -4.8 °C -11.1 °C 34418.7 hPa SE 38.8 km/h 38.8 km/h 49 % 0 mm 14.0 W/m2 BKN
19:13 -4.8 °C -10.9 °C 34428.8 hPa ESE 44.7 km/h 44.7 km/h 50 % 0 mm 7.0 W/m2 BKN
19:14 -4.8 °C -10.9 °C 34428.8 hPa SE 44.7 km/h 44.7 km/h 50 % 0 mm 7.0 W/m2 BKN
19:26 -6.1 °C -10.5 °C 34452.6 hPa SE 51.8 km/h 51.8 km/h 60 % 0 mm 33.0 W/m2 BKN
19:27 -6.1 °C -10.5 °C 34452.6 hPa SE 47.6 km/h 47.6 km/h 60 % 0 mm 30.0 W/m2 BKN
19:32 -6.7 °C -10.4 °C 34452.6 hPa SE 35.7 km/h 35.7 km/h 65 % 7.62 mm 11.0 W/m2 RA
19:37 -7 °C -10.4 °C 34452.6 hPa SE 23.8 km/h 23.8 km/h 67 % 7.62 mm 14.0 W/m2 BKN
20:23 -7.6 °C -10 °C 34452.6 hPa Calm     76 % 7.62 mm 0.0 W/m2 OVC
20:28 -7.6 °C -10.4 °C 34462.7 hPa SE 20.9 km/h 20.9 km/h 72 % 7.62 mm 0.0 W/m2 OVC
20:33 -7.6 °C -10.7 °C 34452.6 hPa SSE 2.6 km/h   70 % 7.62 mm 0.0 W/m2 OVC
20:38 -7.6 °C -10.9 °C 34452.6 hPa Calm     68 % 7.62 mm 0.0 W/m2 OVC
20:43 -7.6 °C -10.7 °C 34452.6 hPa Calm     70 % 7.62 mm 0.0 W/m2 OVC
20:48 -7.6 °C -10.9 °C 34462.7 hPa Calm     68 % 7.62 mm 0.0 W/m2 CLR
20:53 -7.6 °C -11.2 °C 34452.6 hPa East 23.8 km/h 23.8 km/h 66 % 7.62 mm 0.0 W/m2 CLR
20:58 -7 °C -11.2 °C 34452.6 hPa ESE 29.8 km/h 29.8 km/h 62 % 7.62 mm 0.0 W/m2 CLR
21:04 -6.7 °C -10.8 °C 34452.6 hPa East 29.8 km/h 29.8 km/h 62 % 12.7 mm 0.0 W/m2 RA
21:09 -7 °C -11.4 °C 34452.6 hPa East 46.7 km/h 46.7 km/h 60 % 12.7 mm 0.0 W/m2
21:14 -7 °C -11.3 °C 34452.6 hPa East 53.6 km/h 53.6 km/h 61 % 7.62 mm 0.0 W/m2 CLR
21:19 -7 °C -10.9 °C 34452.6 hPa East 50.7 km/h 50.7 km/h 64 % 7.62 mm 0.0 W/m2 CLR
21:24 -6.7 °C -10.7 °C 34452.6 hPa SE 59.5 km/h 59.5 km/h 63 % 7.62 mm 0.0 W/m2 CLR
21:29 -6.3 °C -10.4 °C 34452.6 hPa ESE 50.7 km/h 50.7 km/h 63 % 7.62 mm 0.0 W/m2 CLR
21:34 -6.3 °C -10.6 °C 34452.6 hPa ESE 26.9 km/h 26.9 km/h 62 % 7.62 mm 0.0 W/m2 CLR
21:39 -6.3 °C -10.8 °C 34442.4 hPa East 62.6 km/h 62.6 km/h 60 % 7.62 mm 0.0 W/m2 CLR
21:44 -6.3 °C -10.8 °C 34428.8 hPa ESE 56.6 km/h 56.6 km/h 60 % 7.62 mm 0.0 W/m2 CLR
21:49 -6.3 °C -10.8 °C 34428.8 hPa ESE 47.6 km/h 47.6 km/h 60 % 7.62 mm 0.0 W/m2 CLR
21:54 -6.3 °C -10.7 °C 34428.8 hPa ESE 29.8 km/h 29.8 km/h 61 % 7.62 mm 0.0 W/m2 CLR
21:59 -6.3 °C -10.9 °C 34418.7 hPa ENE 44.7 km/h 44.7 km/h 59 % 7.62 mm 0.0 W/m2 CLR
22:04 -6.3 °C -10.8 °C 34418.7 hPa ESE 47.6 km/h 47.6 km/h 60 % 0 mm 0.0 W/m2 CLR
22:09 -6.3 °C -10.8 °C 34418.7 hPa ESE 59.5 km/h 59.5 km/h 60 % 0 mm 0.0 W/m2 CLR
22:14 -6.3 °C -10.9 °C 34418.7 hPa ESE 56.6 km/h 56.6 km/h 59 % 0 mm 0.0 W/m2 CLR
22:19 -6.1 °C -10.7 °C 34418.7 hPa ESE 71.5 km/h 71.5 km/h 59 % 0 mm 0.0 W/m2 CLR
22:24 -6.3 °C -10.8 °C 34405.1 hPa ESE 59.5 km/h 59.5 km/h 60 % 0 mm 0.0 W/m2 CLR
22:29 -6.7 °C -10.8 °C 34405.1 hPa ESE 50.7 km/h 50.7 km/h 62 % 0 mm 0.0 W/m2 CLR
22:34 -6.7 °C -10.7 °C 34405.1 hPa East 50.7 km/h 50.7 km/h 63 % 0 mm 0.0 W/m2 CLR
22:39 -6.7 °C -10.8 °C 34405.1 hPa ESE 44.7 km/h 44.7 km/h 62 % 0 mm 0.0 W/m2 CLR
22:44 -7 °C -11 °C 34405.1 hPa East 32.8 km/h 32.8 km/h 63 % 0 mm 0.0 W/m2 CLR
22:49 -7 °C -10.9 °C 34395 hPa East 38.8 km/h 38.8 km/h 64 % 0 mm 0.0 W/m2 CLR
22:54 -7 °C -10.7 °C 34395 hPa SE 17.9 km/h 17.9 km/h 65 % 0 mm 0.0 W/m2 CLR
22:59 -7 °C -10.7 °C 34395 hPa ESE 29.8 km/h 29.8 km/h 65 % 0 mm 0.0 W/m2 CLR
23:04 -6.7 °C -10.3 °C 34395 hPa ESE 20.9 km/h 20.9 km/h 66 % 0 mm 0.0 W/m2 CLR
23:09 -6.3 °C -10 °C 34395 hPa ESE 29.8 km/h 29.8 km/h 66 % 0 mm 0.0 W/m2 CLR
23:10 -6.3 °C -10 °C 34395 hPa ESE 26.9 km/h 26.9 km/h 66 % 0 mm 0.0 W/m2 CLR
23:15 -6.3 °C -10 °C 34395 hPa East 23.8 km/h 23.8 km/h 66 % 0 mm 0.0 W/m2 CLR
23:20 -6.3 °C -10.2 °C 34405.1 hPa ESE 9 km/h 9 km/h 65 % 0 mm 0.0 W/m2 CLR
23:25 -6.3 °C -10.2 °C 34405.1 hPa Calm     65 % 0 mm 0.0 W/m2 CLR
23:30 -6.7 °C -10.1 °C 34405.1 hPa Calm     68 % 0 mm 0.0 W/m2 CLR
23:35 -6.7 °C -10.1 °C 34405.1 hPa Calm     68 % 0 mm 0.0 W/m2 CLR
23:40 -7 °C -10.4 °C 34405.1 hPa Calm     67 % 0 mm 0.0 W/m2 CLR
23:45 -7.3 °C -10.9 °C 34418.7 hPa Calm     66 % 0 mm 0.0 W/m2 CLR
23:50 -7.3 °C -11 °C 34405.1 hPa SE 23.8 km/h 23.8 km/h 65 % 0 mm 0.0 W/m2 CLR
23:55 -7.3 °C -11.2 °C 34418.7 hPa Calm     64 % 0 mm 0.0 W/m2 CLR
23:56 -7.3 °C -11 °C 34418.7 hPa Calm     65 % 0 mm 0.0 W/m2 CLR
Lo Temps de Massalio
Compliments of Weather Underground - 1.25 mb